Location: Pcim
(49.7500°N, 19.9670°E)
Time: 17:53:10
(UTC+02:00)

ZACube-1 - Pass Details

Date: 01 May 2024
Orbit: 566 x 635 km, 97.7° (Epoch: 28 May)

Event Time Altitude Azimuth Distance (km) Brightness Sun altitude
Rises 02:47:49 0° 24° (NNE) 2,941 ? -19.0°
Reaches altitude 10° 02:50:24 10° 38° (NE) 2,032 ? -18.8°
Maximum altitude 02:54:01 24° 93° (E) 1,319 ? -18.4°
Drops below altitude 10° 02:57:37 10° 147° (SSE) 2,021 ? -18.1°
Enters shadow 02:57:58 - 150° (SSE) 2,136 ? -18.1°
